Tracking 29932 objects as of 4-Dec-2024
HD Live streaming from Space Station
objects crossing your sky now

STARLINK-31023

Track STARLINK-31023 now!
10-day predictions
STARLINK-31023 is classified as:


NORAD ID: 58522
Int'l Code: 2023-191Q
Perigee: 565.3 km
Apogee: 567.2 km
Inclination: 43.0 °
Period: 95.8 minutes
Semi major axis: 6937 km
RCS: Unknown
Launch date: December 7, 2023
Source: United States (US)
Launch site: AIR FORCE EASTERN TEST RANGE (AFETR)
Your satellite tracking list
Your tracking list is empty




NASA's NSSDC Master Catalog

Two Line Element Set (TLE):
1 58522U 23191Q   24338.35124925  .00001001  00000-0  89155-4 0  9993
2 58522  43.0038  92.7992 0001382 272.7685  87.2999 15.02536269 56049
Source of the keplerian elements: AFSPC